Вернуться в каталог

STARLINK-11374

АктивенСвязьVLEO
NORAD 61581·PAYLOAD·🇺🇸 United States

Запущен Oct 18, 2024 с Cape Canaveral Space Force Station

Loading…

Ближайшие Пролёты (ближайшие 24 часа)

TLE

СвежийSource: CelesTrak SupGP

Эпоха: Sep 14, 2026, 21:27 UTC

1 61581C 24187H   26257.89423611  .00021159  00000+0  17428-3 0  2578
2 61581  53.1570  83.9052 0001152  84.9238 220.4387 15.69700253    19

Отслеживайте STARLINK-11374 в реальном времени с AllMySat

Download on the App Store